Weather reports worldwide

Advertisment
Bridgefoot, United Kingdom (99137): temperature & dewpoint: 12.09.2019 05:00:00 - 18.09.2019 05:00:00 (BST)Bridgefoot, United Kingdom (99137): precipitation: 12.09.2019 05:00:00 - 18.09.2019 05:00:00 (BST)
Date & Time tt [°C] td [°C] rr [mm]
18.09.2019 05:00:00 - - -
18.09.2019 04:00:00 6,5 6,4 0,0
18.09.2019 03:00:00 5,9 5,9 0,0
18.09.2019 02:00:00 4,6 4,5 0,0
18.09.2019 01:00:00 3,9 3,6 0,0
18.09.2019 00:00:00 4,5 4,2 0,0
17.09.2019 23:00:00 5,2 4,5 0,0
17.09.2019 22:00:00 6,3 5,2 0,0
17.09.2019 21:00:00 7,4 5,7 0,0
17.09.2019 20:00:00 9,3 6,1 0,0
17.09.2019 19:00:00 13,1 5,8 0,0
17.09.2019 18:00:00 15,2 4,3 0,0
17.09.2019 17:00:00 15,8 5,0 0,0
17.09.2019 16:00:00 15,4 5,8 0,0
17.09.2019 15:00:00 16,1 6,4 0,0
17.09.2019 14:00:00 16,0 6,8 0,0
17.09.2019 13:00:00 15,3 8,8 0,0
17.09.2019 12:00:00 14,8 8,0 0,0
17.09.2019 11:00:00 14,0 8,5 0,0
17.09.2019 10:00:00 12,6 8,9 0,0
17.09.2019 09:00:00 9,4 9,2 0,0
17.09.2019 08:00:00 7,0 6,6 0,0
17.09.2019 07:00:00 7,3 6,6 0,0
17.09.2019 06:00:00 8,6 6,4 0,0
17.09.2019 05:00:00 9,3 8,3 0,0
17.09.2019 04:00:00 8,4 7,8 0,0
17.09.2019 03:00:00 7,2 6,1 0,0
17.09.2019 02:00:00 8,4 7,3 0,0
17.09.2019 01:00:00 10,7 8,1 0,0
17.09.2019 00:00:00 10,4 7,8 0,0
16.09.2019 23:00:00 11,4 8,3 0,0
16.09.2019 22:00:00 10,2 7,1 0,0
16.09.2019 21:00:00 12,3 7,9 0,0
16.09.2019 20:00:00 12,4 7,4 0,0
16.09.2019 19:00:00 13,3 8,3 0,0
16.09.2019 18:00:00 14,2 8,0 0,0
16.09.2019 17:00:00 14,4 8,2 0,0
16.09.2019 16:00:00 14,7 9,6 0,0
16.09.2019 15:00:00 15,4 10,3 0,0
16.09.2019 14:00:00 15,5 9,8 0,0
16.09.2019 13:00:00 14,9 7,4 0,0
16.09.2019 12:00:00 15,1 8,3 0,0
16.09.2019 11:00:00 12,8 9,1 0,0
16.09.2019 10:00:00 10,1 10,1 0,0
16.09.2019 09:00:00 7,5 7,5 0,0
16.09.2019 08:00:00 5,8 5,8 0,0
16.09.2019 07:00:00 5,1 5,0 0,0
16.09.2019 06:00:00 5,5 5,4 0,0
16.09.2019 05:00:00 6,4 6,3 0,0
16.09.2019 04:00:00 6,5 6,3 0,0
16.09.2019 03:00:00 7,1 6,9 0,0
16.09.2019 02:00:00 8,0 7,9 0,0
16.09.2019 01:00:00 7,8 7,4 0,0
16.09.2019 00:00:00 8,1 7,5 0,0
15.09.2019 23:00:00 9,3 8,6 0,0
15.09.2019 22:00:00 9,5 8,8 0,0
15.09.2019 21:00:00 9,3 8,6 0,0
15.09.2019 20:00:00 9,7 8,2 0,0
15.09.2019 19:00:00 12,1 8,2 0,0
15.09.2019 18:00:00 14,0 8,2 0,0
15.09.2019 17:00:00 14,0 8,7 0,0
15.09.2019 16:00:00 14,4 8,4 0,0
15.09.2019 15:00:00 14,7 9,4 0,0
15.09.2019 14:00:00 14,1 8,9 0,0
15.09.2019 13:00:00 14,0 9,1 0,0
15.09.2019 12:00:00 14,2 8,7 0,0
15.09.2019 11:00:00 14,4 9,6 0,0
15.09.2019 10:00:00 13,7 9,1 0,0
15.09.2019 09:00:00 12,9 8,9 0,0
15.09.2019 08:00:00 13,0 9,4 0,0
15.09.2019 07:00:00 13,2 10,6 0,0
15.09.2019 06:00:00 13,1 11,0 0,0
15.09.2019 05:00:00 12,4 11,6 0,0
15.09.2019 04:00:00 13,0 12,0 0,2
15.09.2019 03:00:00 13,5 12,2 0,0
15.09.2019 02:00:00 15,8 13,0 0,0
15.09.2019 01:00:00 15,8 13,0 0,0
15.09.2019 00:00:00 15,5 13,1 0,0
14.09.2019 23:00:00 15,8 12,8 0,0
14.09.2019 22:00:00 15,3 12,9 0,0
14.09.2019 21:00:00 15,3 12,4 0,0
14.09.2019 20:00:00 15,0 12,5 0,0
14.09.2019 19:00:00 15,1 12,5 0,0
14.09.2019 18:00:00 15,3 12,3 0,0
14.09.2019 17:00:00 15,8 11,8 0,0
14.09.2019 16:00:00 16,8 12,2 0,0
14.09.2019 15:00:00 16,0 11,0 0,0
14.09.2019 14:00:00 15,3 10,8 0,0
14.09.2019 13:00:00 15,7 11,8 0,0
14.09.2019 12:00:00 15,0 11,6 0,0
14.09.2019 11:00:00 14,7 11,6 0,0
14.09.2019 10:00:00 14,7 11,0 0,0
14.09.2019 09:00:00 13,0 10,6 0,0
14.09.2019 08:00:00 10,9 9,4 0,0
14.09.2019 07:00:00 6,1 6,1 0,0
14.09.2019 06:00:00 5,3 5,3 0,0
14.09.2019 05:00:00 5,8 5,8 0,0
14.09.2019 04:00:00 5,4 5,4 0,0
14.09.2019 03:00:00 5,4 5,4 0,0
14.09.2019 02:00:00 5,0 4,8 0,0
14.09.2019 01:00:00 5,4 5,0 0,0
14.09.2019 00:00:00 6,2 5,6 0,0
13.09.2019 23:00:00 7,4 7,0 0,0
13.09.2019 22:00:00 7,6 6,9 0,0
13.09.2019 21:00:00 8,7 7,2 0,0
13.09.2019 20:00:00 10,3 7,7 0,0
13.09.2019 19:00:00 13,1 8,6 0,0
13.09.2019 18:00:00 14,6 9,4 0,0
13.09.2019 17:00:00 15,3 9,5 0,0
13.09.2019 16:00:00 15,7 9,6 0,0
13.09.2019 15:00:00 16,1 10,6 0,0
13.09.2019 14:00:00 15,2 10,7 0,0
13.09.2019 13:00:00 14,5 9,6 0,0
13.09.2019 12:00:00 14,2 10,7 0,0
13.09.2019 11:00:00 14,5 10,9 0,0
13.09.2019 10:00:00 12,8 11,2 0,0
13.09.2019 09:00:00 10,5 10,5 0,0
13.09.2019 08:00:00 7,1 7,1 0,0
13.09.2019 07:00:00 5,8 5,6 0,0
13.09.2019 06:00:00 7,7 7,7 0,0
13.09.2019 05:00:00 5,9 5,8 0,0
13.09.2019 04:00:00 6,5 6,3 0,0
13.09.2019 03:00:00 6,6 6,4 0,0
13.09.2019 02:00:00 6,9 6,5 0,0
13.09.2019 01:00:00 7,6 7,0 0,0
13.09.2019 00:00:00 9,2 8,5 0,0
12.09.2019 23:00:00 10,0 8,7 0,0
12.09.2019 22:00:00 11,1 9,7 0,0
12.09.2019 21:00:00 12,2 10,2 0,0
12.09.2019 20:00:00 13,0 11,3 0,0
12.09.2019 19:00:00 13,9 11,4 0,0
12.09.2019 18:00:00 15,4 14,8 0,4
12.09.2019 17:00:00 15,3 14,5 0,2
12.09.2019 16:00:00 16,1 15,7 0,6
12.09.2019 15:00:00 16,0 15,6 0,4
12.09.2019 14:00:00 16,1 15,4 0,6
12.09.2019 13:00:00 16,1 15,7 2,2
12.09.2019 12:00:00 15,8 15,3 1,0
12.09.2019 11:00:00 15,7 15,2 0,6
12.09.2019 10:00:00 14,5 13,9 0,6
12.09.2019 09:00:00 13,9 12,6 0,0
12.09.2019 08:00:00 14,5 12,0 0,0
12.09.2019 07:00:00 14,2 12,0 0,0
12.09.2019 06:00:00 14,1 12,0 0,0
12.09.2019 05:00:00 14,0 11,8 0,0

tt = temperature
td = dewpoint
rr = precipitation

Next stations